Location: Lancaster
(54.0470°N, 2.8020°W)
Time: 11:21:12
(UTC+01:00)

COSMOS 2428 - Visible Passes

Search period start: 28 May 2017 00:00
Search period end: 07 June 2017 00:00
Orbit: 844 x 859 km, 70.9° (Epoch: 27 May)

Date Brightness Start Highest point End Pass type
(mag) Time Alt. Az. Time Alt. Az. Time Alt. Az.
28 May 3.7 00:10:12 10° NNW 00:15:44 45° NE 00:21:14 10° ESE visible
28 May 3.1 01:54:37 10° NW 02:00:06 47° WSW 02:03:58 19° S visible
28 May 5.0 22:13:53 10° NNW 22:17:51 19° NNE 22:21:50 10° ENE visible
28 May 3.6 23:58:07 10° NNW 00:03:39 45° NE 00:09:09 10° ESE visible
29 May 3.1 01:42:32 10° NW 01:48:01 47° WSW 01:51:45 20° S visible
29 May 3.6 23:46:02 10° NNW 23:51:34 45° NE 23:57:04 10° ESE visible
30 May 3.2 01:30:27 10° NW 01:35:57 47° WSW 01:39:36 20° S visible
30 May 3.6 23:33:57 10° NNW 23:39:30 45° NE 23:45:00 10° ESE visible
31 May 3.2 01:18:22 10° NW 01:23:51 47° WSW 01:27:30 20° S visible
31 May 3.6 23:21:52 10° NNW 23:27:24 45° NE 23:32:55 10° ESE visible
01 Jun 3.2 01:06:17 10° NW 01:11:46 46° WSW 01:15:26 20° S visible
01 Jun 3.6 23:09:47 10° NNW 23:15:20 45° NE 23:20:50 10° ESE visible
02 Jun 3.2 00:54:13 10° NW 00:59:41 46° WSW 01:03:24 20° S visible
02 Jun 3.6 22:57:42 10° NNW 23:03:15 45° NE 23:08:45 10° ESE visible
03 Jun 3.3 00:42:07 10° NW 00:47:37 46° WSW 00:51:25 19° S visible
03 Jun 3.5 22:45:37 10° NNW 22:51:10 46° NE 22:56:41 10° ESE visible
04 Jun 3.3 00:30:03 10° NW 00:35:31 46° WSW 00:39:27 18° S visible
04 Jun 3.5 22:33:32 10° NNW 22:39:05 46° NE 22:44:36 10° ESE visible
05 Jun 3.3 00:17:58 10° NW 00:23:26 46° WSW 00:27:32 17° S visible
05 Jun 3.5 22:21:28 10° NNW 22:27:01 46° NE 22:32:31 10° ESE visible
06 Jun 3.3 00:05:53 10° NW 00:11:21 46° WSW 00:15:38 16° S visible
